Notices

What's New in latest Release from April 7th, 2021:

- Updated Glossary, including Speed of Maximum Gust, and Total Hourly Precipitation

- Updated national and regional climate services offices contacts and prices information

- Addition of station inventory lists for 1981-2010, 1971-2000, and 1961-1990 Normals.

If you haven't already, please take our survey and provide feedback about our website: https://eccc.sondage-survey.ca/f/LanguageSelection.aspx?s=442ca660-fcf1-47c0-95a9-59707d6fd709

Hourly Data Report for September 08, 2017

VICTORIA UNIVERSITY CS
BRITISH COLUMBIA

48°27'25.200" N
123°18'16.600" W
60.10 m
1018598
71783
WYJ

Download Data

Hourly Data (September 2017)
Hourly Data Report for September 8, 2017
TIME
LST
Temp Definition
°C
Dew Point Definition
°C
Rel Hum Definition
%
Precip. Amount Definition
mm

Wind Dir Definition
10's deg

Wind Spd Definition
km/h
Visibility Definition
km
Stn Press Definition
kPa
Hmdx Definition


Wind Chill Definition


Weather Definition


00:00 15.6 14.4 93 0.0 18 4   100.56     LegendNANA
01:00 15.5 14.3 93 0.0 27 2   100.54     LegendNANA
02:00 14.3 13.4 94 0.0   0   100.57     LegendNANA
03:00 13.2 12.1 93 0.0 5 4   100.61     LegendNANA
04:00 14.1 13.2 94 0.0 30 6   100.60     LegendNANA
05:00 14.2 13.4 95 0.0 31 3   100.61     LegendNANA
06:00 12.9 12.4 97 0.0 32 1   100.63     LegendNANA
07:00 13.3 12.9 98 0.0 15 2   100.70     LegendNANA
08:00 14.7 14.4 98 0.0 26 2   100.71     LegendNANA
09:00 14.8 14.3 97 0.0 27 2   100.74     LegendNANA
10:00 17.0 15.9 93 0.0 12 1   100.75     LegendNANA
11:00 16.2 14.0 87 0.0 9 2   100.75     LegendNANA
12:00 17.2 14.2 83 0.0 11 3   100.71     LegendNANA
13:00 16.1 13.2 83 0.0 11 3   100.71     LegendNANA
14:00 19.5 14.7 74 0.0 13 3   100.67     LegendNANA
15:00 17.3 12.7 74 0.0 11 3   100.65     LegendNANA
16:00 19.1 12.6 66 0.0 21 5   100.59     LegendNANA
17:00 18.2 11.2 64 0.0 23 8   100.57     LegendNANA
18:00 17.3 10.7 65 0.0 23 8   100.54     LegendNANA
19:00 17.2 8.0 55 0.0 24 7   100.55     LegendNANA
20:00 16.7 7.8 55 0.0 23 7   100.61     LegendNANA
21:00 15.3 9.5 68 0.0 24 9   100.60     LegendNANA
22:00 15.2 9.8 70 0.0 24 9   100.60     LegendNANA
23:00 15.5 8.3 62 0.0 24 6   100.64     LegendNANA

Notes on Data Quality.

Legend

  • E = Estimated
  • M = Missing
  • NA = Not Available*
  • [empty] = Indicates an unobserved value
Date modified: